Wetbulb
74.07 75.52 76.40 76.40 76.91 77.05 76.86 77.28 77.34 77.38 77.56 77.35 77.27 76.94 76.52 76.87 76.93 76.98 77.25 76.96 76.92 77.30 76.91 76.92 76.64 76.04 76.68 76.77 76.11 76.32 76.20 76.07 76.17 76.08 76.27 76.40 75.81 76.02 75.95 75.53 75.82 75.11 75.21
75.06 75.64 76.73 77.03 76.75 77.09 77.23 77.62 77.34 77.44 77.39 77.48 77.28 77.05 76.78 76.86 76.86 77.24 77.02 76.81 77.06 77.23 76.85 76.29 76.09 76.63 76.37 76.11 76.23 76.16 76.21 76.15 76.33 75.89 76.43 76.64 76.38 76.26 76.19 75.99 76.85 75.66 75.57
74.86 75.69 76.32 77.18 77.11 77.13 76.74 76.99 77.32 77.43 77.27 77.40 77.26 77.01 76.90 77.01 76.93 77.54 76.99 77.06 77.84 76.84 77.00 76.47 76.54 76.33 76.40 76.50 76.33 76.68 76.45 76.15 75.99 75.52 76.84 75.82 76.64 76.49 76.29 76.57 76.50 76.20 75.91
75.13 75.91 76.42 77.07 76.37 76.85 77.11 77.01 76.96 77.26 77.24 77.38 77.30 76.74 76.92 77.14 76.92 77.39 76.60 77.62 77.23 77.40 76.66 76.90 76.70 76.60 76.35 76.36 76.25 76.44 76.11 74.44 74.57 77.06 75.12 75.18 75.86 76.18 76.13 76.42 76.13 76.00 76.07
75.37 76.63 76.81 76.07 75.66 75.69 76.20 76.85 76.75 76.90 76.99 77.31 77.32 76.57 76.67 77.11 77.23 77.17 77.15 77.10 76.98 77.09 76.74 76.64 76.48 76.57 76.58 76.33 76.29 76.21 76.10 74.60 73.49 76.74 76.25 75.61 76.16 75.77 75.91 76.11 76.06 75.85 76.03
75.22 76.35 76.26 75.99 76.35 75.73 75.20 75.26 75.48 76.18 76.56 76.95 77.14 76.75 77.13 76.89 76.95 77.40 77.00 76.73 76.34 76.32 76.07 76.37 76.26 76.40 76.34 76.09 76.37 75.95 75.62 74.91 76.36 74.15 73.95 74.58 75.26 74.82 74.80 75.79 76.18 76.44 76.12
75.15 75.95 76.88 76.82 76.45 76.38 75.96 76.52 76.08 75.52 76.60 76.61 77.21 76.93 76.80 76.79 76.96 77.23 77.04 77.04 76.77 77.08 76.52 76.80 76.93 76.84 76.50 75.67 75.75 75.48 74.57 75.31 75.18 74.46 73.49 73.84 74.75 75.25 75.94 76.16 75.58 75.63 75.70
74.69 76.06 76.42 76.39 76.84 76.67 76.33 76.37 76.15 75.87 76.19 76.71 76.99 76.31 76.49 77.28 77.32 77.37 77.27 77.05 76.94 77.10 76.82 76.51 76.34 76.12 75.70 75.77 75.62 75.20 74.65 74.86 75.50 74.09 73.47 73.79 75.16 75.03 74.79 75.21 75.41 74.72 74.49
74.43 75.49 75.87 75.95 76.98 76.36 76.54 76.41 76.19 76.00 76.61 76.42 76.66 75.88 76.15 76.85 76.93 76.99 77.02 76.97 76.74 76.46 76.55 76.32 76.13 75.79 76.16 75.80 75.54 74.54 75.06 74.02 74.51 74.21 73.35 75.75 75.16 74.40 74.29 74.23 74.49 74.99 74.54
74.03 75.86 75.81 76.09 76.80 76.36 76.72 76.00 76.23 76.00 76.25 76.49 76.09 75.96 76.18 76.54 77.07 76.94 77.63 77.48 76.66 76.49 76.01 76.01 75.99 75.71 76.31 75.63 74.73 74.15 74.08 74.12 74.24 73.89 74.11 75.97 76.17 75.61 74.43 74.43 74.43 74.23 74.75
72.85 73.96 75.27 74.66 75.74 76.05 76.19 76.22 76.18 76.22 76.30 76.54 76.44 76.14 76.48 76.58 76.92 77.20 77.63 76.85 76.32 75.78 75.47 75.79 76.19 76.21 76.20 76.10 75.44 74.30 74.77 72.04 73.19 73.33 72.22 74.64 74.93 73.42 73.50 73.49 73.45 73.12 73.01
72.18 73.49 74.93 74.56 75.25 75.70 74.78 76.93 77.21 76.49 76.28 76.89 77.18 77.05 76.76 77.06 77.78 77.09 77.06 76.60 76.18 75.81 76.21 75.71 75.74 75.21 76.78 75.07 75.71 75.19 72.50 72.00 71.96 72.23 73.22 74.59 74.14 73.75 73.58 73.35 73.07 73.22 73.27
73.36 73.61 74.33 74.94 75.38 75.48 76.40 75.84 75.62 75.66 75.51 76.29 77.30 77.09 76.98 76.70 76.72 76.45 75.76 75.58 75.29 75.11 76.37 76.86 76.92 76.45 75.75 75.57 74.27 73.74 73.33 72.92 72.41 72.30 73.82 74.76 75.24 74.07 73.93 73.64 73.42 73.48 73.67
72.81 73.47 74.36 74.91 75.79 76.11 75.16 74.75 74.38 73.68 74.24 74.38 75.89 76.96 76.51 75.55 75.35 75.07 74.25 75.10 76.14 76.21 77.16 76.50 75.35 76.04 76.57 76.44 75.86 75.02 74.89 73.77 73.28 72.88 73.48 73.78 73.74 74.26 73.61 73.47 73.52 73.58 73.77
72.41 73.41 74.17 75.07 75.96 76.17 76.29 74.85 74.13 73.66 73.79 74.69 75.66 76.22 75.59 74.73 75.09 75.36 75.93 75.42 76.26 77.84 75.87 76.03 75.36 75.89 75.34 75.39 75.93 75.80 75.36 75.60 74.56 74.18 73.15 73.27 73.67 73.88 73.77 74.14 74.61 74.26 74.35
72.65 72.93 74.37 74.77 75.47 75.82 76.34 76.30 75.29 74.58 75.24 74.90 75.03 75.62 76.75 75.40 75.81 75.71 75.41 75.44 76.37 77.33 76.36 76.07 76.06 75.06 74.73 75.10 75.26 75.71 75.92 76.03 76.18 76.13 75.26 75.04 73.52 73.91 73.64 73.92 74.47 74.85 75.10
72.99 73.67 74.21 74.52 75.19 75.77 76.20 76.20 74.80 74.62 74.88 74.73 75.14 76.73 76.96 76.93 77.08 76.83 75.96 76.14 76.16 77.17 78.70 76.56 75.88 75.48 73.46 73.81 74.49 74.75 76.20 76.40 76.22 76.41 77.14 76.37 75.12 73.25 74.42 74.71 75.28 75.50 75.90
73.65 73.86 74.48 73.45 74.72 75.69 76.12 75.93 74.88 75.51 74.94 74.95 75.20 75.73 76.44 77.04 77.29 77.54 76.03 76.19 77.44 78.44 76.79 75.52 75.37 74.28 74.09 73.92 74.31 74.92 75.69 77.03 76.51 77.00 77.68 77.30 76.83 76.52 75.00 74.66 73.74 74.06 74.89
74.19 74.69 74.63 74.82 74.66 75.69 76.56 77.24 76.33 76.24 76.75 75.36 75.65 75.65 76.96 76.89 77.28 77.08 75.95 76.29 78.22 77.80 76.26 76.66 75.78 76.64 74.33 74.50 73.94 74.84 75.65 76.75 76.75 75.68 76.67 77.82 76.79 77.35 77.21 75.68 74.03 74.19 74.72
74.39 75.25 75.01 75.33 75.91 76.30 76.23 77.46 76.23 75.69 75.82 75.77 75.31 75.72 77.25 77.19 77.28 77.18 76.39 77.20 77.24 76.36 75.99 75.94 77.04 76.07 75.74 75.13 73.21 73.42 75.75 76.52 77.22 77.02 75.80 76.70 76.01 77.47 76.61 77.78 78.66 77.19 75.78
74.24 74.85 75.18 75.27 76.23 75.96 75.65 73.87 74.06 73.53 74.86 75.36 76.18 77.28 77.69 77.14 77.60 78.46 76.11 76.19 76.66 76.44 76.95 78.24 77.00 75.91 73.88 75.99 73.88 72.66 73.48 74.98 75.65 76.06 76.85 76.77 75.54 76.47 76.32 77.49 78.79 78.28 77.79
74.11 74.64 75.14 75.61 76.35 77.22 76.12 76.90 75.76 74.95 75.09 75.55 76.41 77.34 77.54 77.26 77.73 77.21 78.17 76.23 77.08 75.81 77.76 77.66 77.59 74.73 73.98 76.26 73.12 73.27 70.49 71.41 73.41 74.15 75.76 75.34 75.39 76.00 75.78 77.35 78.43 79.20 79.05
73.95 74.74 75.30 76.01 76.45 77.02 76.71 77.75 75.85 77.78 75.85 74.85 75.30 75.66 76.74 77.49 77.30 77.24 77.31 77.38 76.60 76.91 75.55 77.90 76.99 77.08 72.71 75.39 76.63 72.97 69.80 68.50 71.77 73.25 73.81 74.25 76.70 75.26 75.88 76.52 77.33 78.26 79.30
73.92 75.25 75.95 76.21 76.65 76.32 77.58 76.42 76.58 75.52 74.30 74.59 74.58 75.70 75.98 77.15 77.09 76.79 77.63 76.77 76.74 77.23 77.43 77.20 76.97 77.12 77.85 73.15 75.76 75.72 76.33 76.28 70.97 69.18 72.93 74.03 74.87 75.31 76.64 76.84 76.69 77.91 79.43
74.17 74.80 75.54 76.30 76.96 76.90 76.89 76.98 74.91 74.49 74.26 75.05 75.29 76.82 77.14 77.84 77.60 76.75 77.85 76.87 76.83 75.44 78.20 78.14 78.33 77.80 76.96 75.30 74.35 75.98 76.73 76.91 76.23 72.53 69.65 72.18 74.20 75.95 76.63 77.74 77.07 77.18 79.05
74.20 74.70 74.81 75.68 76.49 76.82 77.03 76.52 75.96 75.48 74.79 75.64 76.14 75.77 75.19 75.55 75.91 77.09 77.56 77.92 78.33 77.82 77.76 77.36 78.59 77.68 77.92 77.68 76.47 76.15 74.64 74.04 73.18 73.19 72.63 73.22 73.68 74.80 76.96 77.69 78.16 78.84 78.57
MSLP
1015.96 1016.63 1017.18 1017.30 1017.43 1017.39 1017.40 1017.46 1017.58 1017.66 1017.67 1017.75 1017.81 1017.92 1018.00 1017.99 1018.14 1018.09 1018.11 1018.12 1018.29 1018.25 1018.31 1018.41 1018.52 1018.67 1018.61 1018.64 1018.80 1018.95 1018.74 1018.76 1018.76 1018.73 1018.61 1018.65 1018.69 1018.68 1018.85 1018.71 1018.40 1018.38 1019.05
1015.62 1016.54 1017.30 1017.38 1017.49 1017.54 1017.75 1017.78 1017.90 1017.92 1017.97 1018.04 1018.10 1018.17 1018.25 1018.30 1018.38 1018.40 1018.52 1018.54 1018.60 1018.69 1018.71 1019.00 1019.07 1019.21 1019.11 1019.16 1019.10 1019.27 1019.19 1019.16 1019.03 1019.09 1018.92 1018.94 1018.92 1019.05 1018.97 1018.94 1018.74 1019.29 1019.34
1015.57 1016.64 1017.09 1017.64 1017.70 1017.78 1017.90 1018.03 1018.10 1018.18 1018.26 1018.33 1018.39 1018.49 1018.46 1018.64 1018.64 1018.71 1018.79 1018.85 1018.89 1019.01 1019.19 1019.25 1019.18 1019.47 1019.28 1019.39 1019.47 1019.47 1019.53 1019.47 1019.36 1019.14 1018.30 1018.10 1018.96 1019.41 1019.41 1019.40 1019.65 1019.64 1019.70
1015.49 1015.95 1016.93 1018.02 1018.11 1018.12 1018.16 1018.25 1018.32 1018.45 1018.50 1018.61 1018.66 1018.77 1018.90 1018.96 1018.92 1018.97 1019.10 1019.21 1019.32 1019.46 1019.51 1019.57 1019.66 1019.58 1019.68 1019.91 1019.90 1019.95 1020.00 1019.95 1019.62 1018.84 1018.04 1018.57 1019.07 1019.97 1019.93 1019.90 1019.99 1019.98 1020.10
1015.53 1016.10 1017.71 1018.24 1018.37 1018.39 1018.48 1018.57 1018.64 1018.76 1018.82 1018.84 1018.95 1019.02 1018.96 1019.18 1019.27 1019.37 1019.45 1019.50 1019.65 1019.76 1019.83 1019.87 1019.92 1020.00 1020.13 1020.25 1020.26 1020.36 1020.32 1020.12 1019.65 1019.18 1019.45 1019.01 1019.66 1020.27 1020.37 1020.36 1020.18 1020.36 1020.37
1016.10 1016.50 1018.24 1018.46 1018.54 1018.59 1018.67 1018.84 1018.96 1019.11 1019.24 1019.18 1019.25 1019.33 1019.49 1019.58 1019.65 1019.69 1019.83 1019.95 1020.02 1020.21 1020.23 1020.20 1020.24 1020.34 1020.47 1020.56 1020.60 1020.74 1020.64 1020.30 1019.66 1019.45 1019.31 1020.05 1020.12 1020.79 1020.79 1020.79 1020.77 1020.77 1020.76
1015.69 1016.88 1017.95 1018.58 1018.81 1018.85 1018.94 1019.00 1019.09 1019.25 1019.47 1019.50 1019.51 1019.74 1019.87 1019.78 1019.99 1020.02 1020.13 1020.31 1020.39 1020.36 1020.50 1020.67 1020.66 1020.72 1020.80 1020.93 1020.95 1021.07 1021.00 1020.53 1019.68 1019.86 1019.92 1020.25 1020.92 1021.22 1021.13 1021.10 1021.15 1021.18 1021.16
1015.97 1016.34 1017.89 1018.75 1018.95 1019.05 1019.11 1019.21 1019.37 1019.46 1019.60 1019.73 1019.80 1019.95 1020.00 1020.20 1020.33 1020.40 1020.39 1020.53 1020.56 1020.69 1020.79 1020.98 1021.05 1021.06 1021.21 1021.26 1021.31 1021.41 1021.27 1020.70 1019.83 1020.13 1020.49 1020.94 1021.62 1021.49 1021.54 1021.61 1021.54 1021.54 1021.51
1016.35 1016.66 1017.45 1018.05 1018.98 1019.26 1019.37 1019.43 1019.56 1019.70 1019.78 1019.92 1020.07 1020.18 1020.34 1020.48 1020.56 1020.63 1020.72 1020.87 1020.95 1021.00 1021.05 1021.18 1021.26 1021.36 1021.43 1021.53 1021.60 1021.62 1021.56 1021.04 1020.10 1020.26 1020.21 1020.82 1021.92 1021.92 1021.96 1021.95 1021.87 1021.75 1021.74
1016.70 1017.11 1017.60 1017.89 1018.49 1018.40 1018.96 1019.75 1019.81 1019.94 1020.08 1020.24 1020.44 1020.51 1020.57 1020.68 1020.76 1020.85 1020.95 1021.18 1021.25 1021.29 1021.28 1021.39 1021.45 1021.52 1021.61 1021.69 1021.77 1021.77 1021.50 1020.97 1020.36 1020.28 1020.88 1021.90 1022.16 1022.12 1022.17 1022.14 1022.09 1022.03 1021.99
1016.90 1017.10 1017.75 1017.93 1018.27 1018.63 1018.82 1019.71 1019.97 1020.25 1020.37 1020.51 1020.66 1020.80 1020.77 1020.69 1020.64 1020.71 1021.21 1021.44 1021.53 1021.56 1021.52 1021.54 1021.58 1021.59 1021.55 1021.65 1021.80 1021.58 1021.11 1020.63 1020.37 1020.46 1021.26 1022.52 1022.43 1022.37 1022.34 1022.33 1022.31 1022.27 1022.26
1017.01 1017.17 1017.55 1017.38 1018.24 1018.45 1018.95 1019.75 1019.66 1019.85 1019.66 1020.46 1020.27 1020.67 1020.48 1020.72 1020.86 1020.75 1021.52 1021.74 1021.76 1021.79 1021.77 1021.75 1021.72 1021.48 1020.94 1020.27 1020.65 1020.91 1020.39 1020.63 1020.87 1020.77 1021.80 1022.59 1022.52 1022.47 1022.48 1022.51 1022.50 1022.44 1022.39
1017.05 1017.15 1017.51 1018.15 1018.61 1018.31 1019.60 1019.39 1019.71 1019.52 1019.82 1020.49 1020.85 1020.35 1020.71 1020.84 1021.10 1020.82 1021.31 1021.30 1021.44 1021.70 1020.86 1021.11 1020.80 1020.35 1020.71 1020.41 1020.62 1020.51 1020.68 1020.48 1020.41 1020.74 1022.16 1022.59 1022.55 1022.56 1022.59 1022.64 1022.58 1022.52 1022.45
1017.29 1017.54 1017.93 1018.54 1018.94 1019.00 1019.15 1019.00 1019.35 1019.68 1019.90 1020.01 1020.64 1020.86 1020.84 1020.70 1021.03 1021.02 1021.03 1021.45 1021.38 1021.33 1021.33 1021.11 1020.68 1021.05 1020.65 1020.88 1020.78 1020.77 1020.59 1020.48 1020.59 1020.78 1022.06 1022.55 1022.66 1022.66 1022.63 1022.61 1022.55 1022.50 1022.43
1017.40 1017.81 1018.27 1018.67 1019.08 1019.38 1019.45 1019.40 1019.44 1019.85 1019.69 1020.31 1020.56 1020.86 1020.78 1020.85 1021.23 1021.17 1021.43 1021.25 1021.38 1021.12 1020.87 1020.83 1020.76 1020.92 1020.74 1020.82 1020.84 1021.05 1020.77 1021.08 1020.94 1020.82 1021.23 1022.46 1022.60 1022.63 1022.61 1022.57 1022.48 1022.39 1022.33
1017.40 1017.80 1018.35 1018.65 1019.21 1019.40 1019.76 1019.93 1019.94 1019.72 1020.39 1020.17 1020.55 1021.09 1021.25 1021.06 1021.24 1021.33 1021.41 1021.33 1021.33 1021.17 1020.95 1020.95 1021.22 1020.88 1020.88 1020.73 1020.93 1021.12 1021.26 1021.18 1021.42 1021.29 1021.07 1021.79 1022.40 1022.51 1022.54 1022.50 1022.40 1022.35 1022.27
1017.36 1017.93 1018.40 1018.62 1019.11 1019.48 1019.79 1019.88 1019.64 1020.03 1020.11 1020.36 1020.65 1021.28 1021.52 1021.47 1021.77 1021.61 1021.50 1021.26 1021.35 1021.62 1021.47 1021.36 1021.24 1021.07 1020.62 1020.57 1021.06 1021.06 1020.96 1021.34 1021.15 1021.39 1021.15 1021.12 1021.56 1022.14 1022.26 1022.32 1022.28 1022.20 1022.18
1017.13 1018.03 1018.42 1018.28 1018.93 1019.41 1019.68 1019.80 1019.66 1019.95 1020.15 1020.46 1020.72 1021.18 1021.62 1021.90 1021.96 1021.81 1021.49 1021.49 1021.74 1021.61 1021.22 1021.22 1020.87 1020.80 1020.76 1020.73 1020.94 1020.82 1020.92 1020.90 1021.00 1021.18 1021.07 1020.94 1020.99 1020.63 1021.72 1022.00 1022.13 1022.10 1022.01
1017.42 1018.07 1018.29 1018.63 1018.89 1019.39 1019.92 1020.19 1020.25 1020.73 1020.48 1020.42 1020.68 1020.89 1021.69 1021.85 1021.98 1021.58 1021.37 1021.90 1022.05 1021.58 1021.28 1021.05 1021.09 1020.87 1020.91 1020.66 1020.39 1020.56 1020.66 1020.64 1020.51 1020.37 1020.74 1020.93 1020.72 1020.59 1020.66 1021.56 1021.75 1021.78 1021.75
1017.46 1018.19 1018.76 1018.61 1019.15 1019.50 1019.66 1020.27 1020.22 1020.33 1020.41 1020.58 1020.66 1020.87 1021.65 1021.69 1021.94 1021.70 1021.77 1021.98 1021.76 1021.36 1021.27 1021.37 1021.52 1021.29 1021.01 1020.91 1019.99 1020.29 1020.33 1020.23 1020.30 1020.24 1020.23 1020.21 1020.30 1020.42 1020.27 1020.89 1020.73 1020.73 1021.23
1017.26 1018.06 1018.68 1019.05 1019.55 1019.57 1019.76 1019.68 1019.87 1019.90 1020.39 1020.54 1020.70 1021.34 1021.66 1021.75 1021.93 1022.00 1021.57 1022.03 1021.78 1021.41 1021.81 1021.77 1021.40 1021.38 1020.88 1020.95 1020.10 1019.94 1019.98 1020.15 1020.04 1019.93 1019.92 1019.85 1020.13 1020.04 1020.35 1020.49 1020.31 1020.27 1020.19
1017.05 1017.83 1018.59 1019.08 1019.66 1019.83 1019.92 1019.65 1019.67 1019.86 1020.16 1020.32 1020.67 1021.26 1021.36 1021.66 1021.88 1021.98 1021.97 1021.83 1022.11 1021.75 1022.04 1022.00 1021.83 1020.94 1020.96 1021.25 1020.44 1020.08 1019.53 1019.66 1019.68 1019.76 1019.99 1019.83 1019.92 1019.75 1019.84 1020.24 1020.38 1020.42 1020.23
1016.65 1017.58 1018.37 1018.88 1019.49 1019.88 1019.77 1020.08 1020.18 1020.40 1020.53 1020.74 1020.91 1021.11 1021.32 1021.60 1021.71 1021.91 1022.17 1022.03 1022.24 1021.81 1021.64 1021.95 1021.89 1021.68 1020.90 1021.25 1021.36 1020.48 1019.54 1019.33 1019.57 1019.71 1020.06 1020.02 1020.19 1019.79 1019.70 1019.96 1020.09 1020.18 1020.32
1016.20 1017.15 1018.09 1018.86 1019.35 1019.80 1020.02 1019.82 1020.28 1020.55 1020.43 1020.16 1020.59 1020.67 1020.95 1021.49 1021.60 1021.80 1022.13 1022.33 1022.45 1021.72 1022.03 1022.03 1021.77 1021.86 1021.50 1020.93 1021.02 1021.13 1021.18 1021.12 1019.81 1019.24 1019.69 1020.03 1019.98 1019.73 1020.14 1019.56 1019.67 1019.97 1020.07
1015.86 1016.54 1017.61 1018.59 1019.21 1019.44 1019.94 1020.32 1020.32 1020.23 1020.16 1020.28 1020.47 1021.10 1021.24 1021.65 1021.65 1021.72 1022.05 1022.26 1022.37 1021.98 1022.25 1022.22 1022.33 1022.23 1021.72 1021.25 1021.00 1021.00 1021.29 1020.84 1020.86 1019.86 1019.25 1019.55 1019.61 1019.70 1019.66 1019.64 1019.65 1019.57 1019.73
1015.52 1016.25 1017.12 1018.21 1019.01 1019.49 1019.97 1020.36 1020.51 1020.34 1020.40 1020.71 1020.72 1021.24 1021.11 1021.36 1021.37 1021.74 1021.86 1022.19 1022.44 1022.09 1022.23 1022.17 1022.35 1022.49 1022.15 1022.04 1021.70 1021.47 1021.06 1020.63 1020.51 1020.06 1019.66 1019.78 1019.61 1019.77 1019.64 1019.62 1019.82 1019.68 1019.63
Wind_Speed
10 12 9 10 12 12 12 12 13 12 14 14 14 14 14 14 14 14 15 16 15 16 15 15 15 15 14 17 15 14 14 13 13 14 15 15 14 13 11 8 13 16 12
14 13 9 10 11 12 12 13 13 12 12 13 13 13 14 13 14 14 15 16 15 16 17 16 15 15 15 15 15 15 14 14 12 13 14 17 15 14 15 14 16 14 12
15 14 13 9 11 12 11 12 12 12 12 12 12 12 14 14 13 15 16 15 15 16 17 16 15 15 15 16 14 15 15 14 12 9 2 13 16 16 16 16 15 15 13
15 14 14 9 10 11 11 10 10 11 11 11 11 11 12 14 13 16 16 15 14 14 15 16 16 15 15 15 13 15 15 13 9 8 9 13 14 15 16 15 15 14 14
12 13 13 11 10 10 10 10 10 10 10 11 11 10 13 13 15 16 15 15 14 14 13 13 11 13 14 13 13 13 13 11 4 14 12 13 14 14 16 15 16 16 16
14 14 13 11 11 10 10 9 9 9 10 9 11 11 14 14 13 15 14 13 13 12 11 11 11 10 12 13 14 13 10 5 4 10 10 13 14 15 15 15 16 17 16
14 14 14 10 11 11 10 8 8 8 9 9 11 11 12 13 13 14 13 14 13 13 14 14 13 14 13 12 12 12 9 8 10 8 11 13 13 12 15 16 14 15 15
12 13 14 11 11 11 11 10 8 8 10 10 11 11 11 14 13 13 13 13 14 16 15 13 12 12 11 11 11 11 8 8 7 11 11 11 10 13 14 13 14 14 13
11 11 10 12 11 10 10 10 9 8 10 10 11 11 11 12 12 12 13 13 13 13 13 11 10 10 11 10 10 10 7 6 9 8 9 10 9 12 12 12 12 12 13
10 10 8 8 10 10 12 9 10 10 10 11 12 12 12 11 12 12 11 12 11 11 10 10 10 8 9 10 9 7 4 6 8 7 10 9 11 11 11 11 11 12 12
8 9 12 10 8 7 9 11 11 11 12 12 13 11 7 8 9 7 14 10 9 8 8 8 9 8 8 10 7 2 9 6 7 6 8 8 9 9 10 10 10 10 10
11 9 8 8 9 7 9 8 7 8 7 7 8 9 7 7 7 11 10 9 8 6 7 4 3 5 10 4 5 10 6 6 5 5 7 6 7 8 8 8 8 8 8
11 8 9 7 7 8 6 7 6 5 6 7 7 6 8 7 5 5 6 6 6 5 3 3 3 3 6 4 6 6 6 5 5 5 9 5 7 6 6 5 5 6 6
10 9 9 8 6 7 7 5 6 6 5 6 8 7 6 6 5 4 5 5 3 3 2 3 5 4 3 6 7 6 8 6 5 4 9 4 3 3 4 4 4 5 5
11 10 9 9 7 8 4 6 7 7 6 9 7 6 5 7 6 6 4 5 3 2 4 3 5 6 5 6 6 5 7 7 6 4 6 6 1 1 2 3 4 4 5
10 11 10 10 8 8 7 7 5 6 7 6 7 8 6 7 5 6 5 5 4 2 4 4 5 4 4 5 6 5 5 5 5 3 5 8 5 3 3 3 3 4 5
10 10 11 10 10 8 8 8 6 7 7 6 7 7 8 6 5 3 4 3 4 4 1 4 3 3 5 5 5 5 3 4 5 4 3 4 9 9 6 4 4 5 6
10 10 11 10 11 9 8 6 6 5 6 6 7 7 7 6 4 3 4 3 3 1 3 4 3 4 4 4 4 4 4 2 4 3 2 2 3 2 10 7 4 5 6
11 11 11 11 11 10 8 7 6 6 3 5 6 6 6 5 5 3 4 5 3 2 3 2 4 2 4 4 4 4 3 2 2 4 3 1 4 1 2 10 6 7 7
12 10 10 10 11 9 7 6 5 6 5 5 5 5 6 5 5 3 5 3 4 3 3 5 5 4 3 3 3 5 3 2 2 2 4 2 4 1 4 3 1 6 9
12 11 11 10 10 9 7 7 5 6 5 5 5 4 6 5 5 2 4 5 4 2 5 2 2 3 4 3 4 5 4 4 4 3 2 2 5 3 4 3 2 4 4
13 12 12 11 10 7 5 3 4 4 5 5 4 5 6 6 5 5 1 4 2 5 3 4 5 1 4 5 4 2 2 6 5 4 3 2 5 3 6 4 2 2 3
13 13 11 11 11 8 6 6 6 5 4 6 6 6 6 6 6 4 3 2 3 5 5 1 4 5 4 4 6 5 2 4 2 4 4 5 0 3 3 4 3 3 3
13 13 12 11 10 10 8 8 8 5 4 3 5 5 6 7 6 6 5 4 4 3 3 3 3 3 7 4 3 5 6 5 4 6 5 6 5 4 3 1 4 4 2
14 13 12 12 10 10 9 5 5 5 5 4 5 6 5 5 6 6 6 5 4 7 3 1 2 3 2 5 5 2 3 2 3 3 4 4 5 4 4 2 4 4 3
14 13 13 13 11 10 9 8 6 5 4 2 5 4 4 5 6 7 6 7 7 4 4 3 1 2 4 3 3 4 5 4 5 3 2 3 1 4 3 3 2 2 4
Wind_Direction
146 125 132 115 103 102 99 93 91 85 82 82 83 84 86 85 88 90 91 94 94 89 90 93 83 83 84 75 78 80 79 81 89 91 93 88 81 82 73 117 149 104 100
134 129 123 113 109 96 93 91 92 94 87 90 86 89 89 90 91 93 90 98 97 86 90 91 90 93 90 88 83 85 80 81 84 96 98 88 75 74 73 72 65 97 105
133 129 127 110 99 92 90 88 86 83 85 84 88 97 100 94 96 96 97 96 95 93 93 97 91 84 80 79 72 71 73 69 66 81 166 87 78 72 77 76 83 89 94
137 134 125 111 105 96 91 91 91 80 80 78 76 81 101 100 97 96 99 97 98 95 93 87 83 82 78 77 75 73 71 66 48 2 66 73 80 72 71 76 81 84 91
134 114 108 119 117 112 106 96 89 86 80 78 74 77 100 103 106 101 98 100 96 93 88 89 87 78 78 79 78 79 70 66 40 73 46 52 58 67 61 64 92 76 68
134 120 129 127 127 115 110 107 101 96 87 81 81 83 93 101 104 107 103 96 91 85 85 92 90 81 85 77 77 73 69 57 111 65 77 73 61 64 66 65 66 67 70
131 124 127 124 126 113 106 101 106 104 92 96 88 82 90 102 108 103 101 96 87 85 89 85 88 82 81 80 79 79 69 32 72 70 71 71 70 73 63 63 69 63 65
128 123 126 122 110 118 111 107 105 104 98 91 87 87 89 97 107 108 101 92 83 83 83 87 88 86 81 86 82 75 54 353 88 79 69 75 67 66 62 58 59 64 62
129 104 131 130 120 109 106 106 106 105 101 99 93 97 96 102 109 108 103 97 89 87 82 81 88 93 87 88 82 80 69 352 69 51 83 79 77 72 69 66 64 63 58
130 128 106 131 111 137 125 102 107 109 107 100 96 100 102 102 106 116 121 95 92 88 85 77 78 101 91 89 89 98 161 224 89 107 73 51 63 78 67 61 52 49 50
148 142 134 134 124 109 125 111 122 111 108 111 117 102 99 95 113 127 77 103 96 89 80 73 75 95 130 116 109 188 244 66 64 58 73 39 55 58 57 55 51 47 44
140 159 135 138 131 136 104 103 105 129 116 114 96 104 113 115 78 92 97 105 96 93 95 90 104 179 215 92 131 199 71 85 72 82 76 56 57 55 53 49 44 40 34
153 141 145 114 127 112 138 144 130 147 131 117 127 111 106 120 133 139 130 142 132 206 118 170 178 63 63 41 64 67 82 69 92 81 86 52 50 52 49 42 34 25 17
154 146 131 137 134 125 137 124 117 115 125 133 110 127 131 129 108 114 98 109 120 65 30 28 61 41 79 98 75 45 70 60 62 72 104 96 50 28 28 21 17 8 359
162 152 147 143 139 126 119 117 103 135 130 116 141 114 109 113 121 116 111 98 75 120 100 57 62 49 84 94 89 67 61 63 60 64 94 133 165 323 336 346 348 348 341
165 155 148 152 139 137 132 132 129 110 114 122 128 115 117 115 111 127 131 119 100 59 46 44 36 51 59 97 100 72 57 64 63 16 68 129 162 220 252 282 305 328 329
175 154 151 152 143 149 139 153 124 144 131 132 116 136 114 123 103 117 104 134 102 96 144 103 119 142 105 115 92 94 102 101 87 70 41 32 147 184 206 242 278 298 304
164 157 163 154 149 153 132 151 127 110 129 126 134 137 130 123 117 170 162 115 89 134 75 66 75 104 92 97 87 79 87 109 91 97 88 359 59 72 178 192 235 281 293
156 164 163 149 153 152 151 134 127 126 145 134 142 136 123 137 129 161 131 119 216 148 56 54 91 2 113 104 142 121 106 93 120 83 91 26 100 191 49 161 194 237 261
159 167 170 165 147 154 154 145 157 142 143 149 146 132 151 129 129 173 121 138 240 178 129 58 7 55 34 28 31 86 68 79 76 84 76 200 103 20 73 35 280 145 204
166 172 178 168 161 176 171 168 155 163 149 162 162 148 149 150 142 148 140 159 243 112 38 38 135 70 69 47 248 138 127 155 155 108 97 86 107 125 85 77 311 3 140
172 176 185 178 177 183 171 200 176 160 163 153 151 152 180 170 169 159 159 149 288 127 87 52 11 66 84 44 11 221 131 160 91 65 79 91 34 117 113 118 57 38 318
179 180 188 191 180 193 192 160 158 144 156 184 172 178 177 184 181 189 164 303 184 276 137 96 62 355 88 80 24 342 215 61 213 117 134 86 165 84 66 115 61 53 13
187 183 178 185 189 190 193 181 158 180 183 213 187 181 173 196 191 188 164 178 230 300 107 143 92 14 310 72 128 70 30 6 358 137 122 114 159 117 56 66 83 105 12
186 184 176 179 185 185 186 192 198 203 179 175 192 145 183 183 195 195 178 190 202 233 131 93 177 14 89 351 34 86 52 112 102 326 82 105 143 82 79 31 31 21 57
183 185 176 176 182 185 188 189 205 188 176 179 165 173 195 174 180 196 190 189 188 206 189 195 187 210 11 37 34 349 29 12 34 23 80 91 41 84 54 65 28 14 27